This demonstration page uses our WeatherBlox Daily Observations layout. Learn more.

Hourly Observations for June 23, 2020

Temp ( °F °C ) Dew Point ( °F °C ) Humidity (%) Winds ( mph kmh ) Pressure ( in mb ) Visibility ( mi km ) Precip ( " mm )
12:15 am 00:15 Clear 61 16.1 59 15 93 93 NW 3 6 30.02 1017 10 16.0934 0 0
12:35 am 00:35 Clear 60 15.6 58 14.7 94 94 NW 5 7 30.02 1017 10 16.0934 0 0
12:55 am 00:55 Clear 60 15.3 58 14.5 95 95 Calm 30.04 1017 10 16.0934 0 0
1:15 am 01:15 Clear 59 14.8 57 14.1 96 96 Calm 30.04 1017 10 16.0934 0 0
1:35 am 01:35 Clear 59 14.9 57 13.9 94 94 W 5 7 30.05 1018 10 16.0934 0 0
1:55 am 01:55 Clear 59 15.2 58 14.5 96 96 W 3 6 30.05 1018 10 16.0934 0 0
2:15 am 02:15 Clear 59 15 58 14.2 95 95 WNW 5 7 30.05 1018 10 16.0934 0 0
2:35 am 02:35 Clear 59 15 58 14.5 97 97 WNW 5 7 30.05 1018 10 16.0934 0 0
2:55 am 02:55 Clear 59 14.8 58 14.2 96 96 Calm 30.05 1018 10 16.0934 0 0
3:15 am 03:15 Clear 59 14.8 58 14.2 96 96 Calm 30.05 1018 10 16.0934 0 0
3:35 am 03:35 Clear 58 14.2 56 13.6 96 96 Calm 30.06 1018 7 11.26538 0 0
3:55 am 03:55 Clear 58 14.2 57 13.7 97 97 W 5 7 30.06 1018 10 16.0934 0 0
4:15 am 04:15 Clear 58 14.5 57 14.1 97 97 WSW 3 6 30.05 1018 10 16.0934 0 0
4:35 am 04:35 Clear 58 14.5 57 14 97 97 W 5 7 30.05 1018 10 16.0934 0 0
4:55 am 04:55 Clear 58 14.3 57 13.8 97 97 WNW 6 9 30.06 1018 7 11.26538 0 0
5:15 am 05:15 Clear with Mist and Fog 57 13.8 56 13.4 97 97 WNW 5 7 30.06 1018 5 8.0467 0 0
5:35 am 05:35 Clear 57 14.1 57 13.7 97 97 WNW 5 7 30.06 1018 7 11.26538 0 0
5:55 am 05:55 Clear with Mist and Fog 57 13.7 56 13.3 97 97 Calm 30.06 1018 5 8.0467 0 0
6:15 am 06:15 Sunny with Mist and Fog 56 13.6 56 13.2 97 97 WNW 5 7 30.06 1018 5 8.0467 0 0
6:35 am 06:35 Sunny 57 13.7 56 13.4 98 98 WNW 5 7 30.06 1018 7 11.26538 0 0
6:55 am 06:55 Sunny 58 14.4 57 14 97 97 WNW 5 7 30.05 1018 10 16.0934 0 0
7:15 am 07:15 Sunny 59 15.1 58 14.5 96 96 WNW 6 9 30.05 1018 10 16.0934 0 0
7:35 am 07:35 Sunny 61 16.2 60 15.3 94 94 WNW 6 9 30.04 1017 10 16.0934 0 0
7:55 am 07:55 Sunny 63 17.4 61 16.1 92 92 WNW 6 9 30.03 1017 10 16.0934 0 0
8:15 am 08:15 Sunny 65 18.5 62 16.6 89 89 WNW 6 9 30.02 1017 10 16.0934 0 0
8:35 am 08:35 Sunny 67 19.3 62 16.9 86 86 WNW 6 9 30.01 1016 10 16.0934 0 0
8:55 am 08:55 Sunny 69 20.3 62 16.5 79 79 WNW 5 7 30 1016 10 16.0934 0 0
9:15 am 09:15 Sunny 70 21 62 16.4 75 75 WNW 9 15 30 1016 10 16.0934 0 0
9:35 am 09:35 Sunny 71 21.8 61 16.2 71 71 WNW 9 15 29.99 1016 10 16.0934 0 0
9:55 am 09:55 Sunny 72 22.4 60 15.6 66 66 WNW 10 17 29.99 1015 10 16.0934 0 0
10:15 am 10:15 Sunny 73 23 60 15.4 62 62 WNW 13 20 29.98 1015 10 16.0934 0 0
10:35 am 10:35 Sunny 74 23.5 58 14.5 57 57 WNW 14 22 29.97 1015 10 16.0934 0 0
10:55 am 10:55 Sunny 75 24 59 14.9 57 57 NW 12 19 29.96 1015 10 16.0934 0 0
11:15 am 11:15 Sunny 76 24.2 58 14.5 55 55 NW 12 19 29.96 1015 10 16.0934 0 0
11:35 am 11:35 Sunny 77 24.9 57 14 51 51 NW 12 19 29.96 1014 10 16.0934 0 0
11:55 am 11:55 Partly Cloudy 77 25 56 13.5 49 49 NW 8 13 29.95 1014 10 16.0934 0 0
12:15 pm 12:15 Sunny 78 25.5 55 12.9 46 46 NW 12 19 29.94 1014 10 16.0934 0 0
12:35 pm 12:35 Partly Cloudy 79 26 54 12.1 42 42 NW 15 24 29.94 1014 10 16.0934 0 0
12:55 pm 12:55 Partly Cloudy 78 25.6 55 12.6 44 44 NNW 9 15 29.94 1014 10 16.0934 0 0
1:15 pm 13:15 Partly Cloudy 79 26.3 55 12.8 43 43 NW 9 15 29.94 1014 10 16.0934 0 0
1:35 pm 13:35 Partly Cloudy 78 25.7 54 12.3 43 43 NW 8 13 29.93 1014 10 16.0934 0 0
1:55 pm 13:55 Mostly Cloudy 77 25.2 52 11.2 42 42 NNW 8 13 29.93 1014 10 16.0934 0 0
2:15 pm 14:15 Partly Cloudy 80 26.8 54 12.1 40 40 NW 9 15 29.91 1013 10 16.0934 0 0
2:35 pm 14:35 Partly Cloudy 81 27.3 53 11.6 38 38 N 14 22 29.9 1012 10 16.0934 0 0
2:55 pm 14:55 Partly Cloudy 81 27.4 53 11.4 37 37 N 9 15 29.9 1012 10 16.0934 0 0
3:55 pm 15:55 Mostly Cloudy 81 27.1 52 11.3 37 37 N 9 15 29.88 1012 10 16.0934 0 0
4:15 pm 16:15 Mostly Cloudy 81 27.3 53 11.9 38 38 N 10 17 29.88 1012 10 16.0934 0 0
4:35 pm 16:35 Mostly Cloudy 79 26.2 55 12.9 44 44 NE 12 19 29.89 1012 10 16.0934 0 0
4:55 pm 16:55 Mostly Cloudy 79 26 56 13.1 45 45 NNE 6 9 29.88 1012 10 16.0934 0 0
5:15 pm 17:15 Partly Cloudy 79 25.9 55 12.7 44 44 ENE 8 13 29.88 1012 10 16.0934 0 0
5:35 pm 17:35 Partly Cloudy 80 26.8 55 12.9 42 42 NNE 9 15 29.86 1011 10 16.0934 0 0
5:55 pm 17:55 Sunny 80 26.7 56 13.4 44 44 NNE 8 13 29.86 1011 10 16.0934 0 0
6:15 pm 18:15 Sunny 79 26 56 13.2 45 45 NNE 9 15 29.87 1011 10 16.0934 0 0
6:35 pm 18:35 Partly Cloudy 80 26.5 57 13.8 46 46 NE 10 17 29.85 1011 10 16.0934 0 0
6:55 pm 18:55 Sunny 79 26.1 57 13.7 46 46 NE 12 19 29.86 1011 10 16.0934 0 0
7:15 pm 19:15 Sunny 78 25.8 56 13.3 46 46 NNE 9 15 29.86 1011 10 16.0934 0 0
7:35 pm 19:35 Sunny 78 25.3 56 13.3 47 47 NNE 8 13 29.85 1011 10 16.0934 0 0
7:55 pm 19:55 Sunny 77 25 56 13.5 49 49 NE 8 13 29.86 1011 10 16.0934 0 0
8:15 pm 20:15 Sunny 76 24.2 56 13.4 51 51 NE 8 13 29.86 1011 10 16.0934 0 0
8:35 pm 20:35 Sunny 74 23.3 57 14 56 56 NE 7 11 29.87 1012 10 16.0934 0 0
8:55 pm 20:55 Sunny 71 21.8 58 14.3 63 63 NE 6 9 29.88 1012 10 16.0934 0 0
9:15 pm 21:15 Clear 69 20.6 58 14.2 67 67 NE 7 11 29.9 1013 10 16.0934 0 0
9:35 pm 21:35 Clear 67 19.4 58 14.3 73 73 ENE 7 11 29.92 1013 10 16.0934 0 0
9:55 pm 21:55 Clear 66 19.1 58 14.2 73 73 ENE 6 9 29.92 1013 10 16.0934 0 0
10:15 pm 22:15 Clear 65 18.6 57 13.9 74 74 E 3 6 29.95 1014 10 16.0934 0 0
10:35 pm 22:35 Clear 67 19.3 56 13.5 69 69 E 3 6 29.94 1014 10 16.0934 0 0
10:55 pm 22:55 Clear 65 18.2 56 13.1 72 72 E 6 9 29.95 1014 10 16.0934 0 0
11:15 pm 23:15 Clear 65 18.1 55 13 72 72 E 5 7 29.96 1015 10 16.0934 0 0
11:35 pm 23:35 Clear 64 17.5 55 12.7 74 74 E 7 11 29.97 1015 10 16.0934 0 0
11:55 pm 23:55 Clear 64 17.9 54 12.3 70 70 E 8 13 29.98 1015 10 16.0934 0 0

Powered by AerisWeather